{"data":{"norad_id":68670,"intl_designator":"2026-077J","name":"STARLINK-37298","alt_names":[],"object_type":"PAYLOAD","status":"ACTIVE","operator":null,"country":"US","launch_date":"2026-04-11","launch_site_code":"AFWTR","launch_vehicle":null,"mission":null,"orbit_class":"UNKNOWN","rcs_meters":null,"size_class":null,"mass_kg":null,"dimensions":null,"purposes":["comms"],"wikipedia_slug":null,"has_3d_model":false,"image_url":null,"decayed_at":null,"tle_current":{"epoch":"2026-09-19T09:48:59.298624Z","epoch_age_seconds":138415,"freshness":"FRESH","line1":"1 68670U 26077J   26262.40901966  .00010730  00000+0  33418-3 0  9994","line2":"2 68670  97.2879 132.2859 0001153 119.7382 240.3976 15.33447645 24843","mean_motion":15.33447645,"eccentricity":0.0001153,"inclination_deg":97.2879,"raan_deg":132.2859,"arg_perigee_deg":119.7382,"mean_anomaly_deg":240.3976,"bstar":0.00033418,"rev_number":2484,"period_min":93.906042680707,"perigee_km":464.74622941361,"apogee_km":466.32438024711,"semimajor_km":6843.6723048304,"source":"CELESTRAK","updated_at":"2026-09-20T09:00:43.951221Z"}}}